User: anonymous   Login
Location: Caltech
(34.1382°N, 118.1253°W)
Time: 08:32:42
(UTC-08:00)
Language:

Cosmos 1484 Rocket - Orbit

View from above orbital plane
View from above orbital plane
View from above satellite
View from above satellite

Ground track
Ground track

The orbit data is extracted from the following two-line orbital elements,

1 14208U 83075B   16340.17577017  .00000422  00000-0  29137-4 0  9991
2 14208  97.3467 352.6820 0041245  80.9228 279.6665 15.10192119818226
Epoch (UTC): 05 December 2016 04:13:06
Eccentricity: 0.0041245
inclination: 97.3467°
perigee height: 507 km
apogee height: 564 km
right ascension of ascending node: 352.6820°
argument of perigee: 80.9228°
revolutions per day: 15.10192119
mean anomaly at epoch: 279.6665°
orbit number at epoch: 81822

The dashed part of the orbit path shows where the satellite is in the earth's shadow,  

DLR